Regional Weather Roundup
Issued by NWS

Home | Current Version | Previous Version | Graphics & Text | Print | Product List | Glossary On
Versions: 1 2 3 4 5 6 7 8 9 10 11 12 13 14 15 16 17 18 19 20 21 22 23 24 25 26 27
000
ASUS45 KBOU 241410
RWRCO

WEATHER ROUNDUP FOR COLORADO
NATIONAL WEATHER SERVICE DENVER/BOULDER CO
800 AM MDT SAT SEP 24 2016

NOTE: "FAIR" INDICATES FEW OR NO CLOUDS BELOW 12000 FEET WITH NO
SIGNIFICANT WEATHER AND/OR OBSTRUCTIONS TO VISIBILITY.

COZ001>005-013-030-031-241500-
...NORTHWEST COLORADO...

CITY           SKY/WX    TMP DP  RH WIND       PRES   REMARKS
CRAIG          LGT RAIN  43  36  76 SW10      30.10R
HAYDEN         CLOUDY    39  34  81 CALM      30.10R
MEEKER         RAIN      40  38  93 SW8       30.12R FOG
MOUNT WERNER   NOT AVBL
STEAMBOAT SPGS CLOUDY    38  35  91 SE6       30.10R
WALDEN           N/A     34  30  86 S15G23    30.08F WCI  24
$$

COZ006>008-011-241500-
...WEST CENTRAL VALLEYS...

CITY           SKY/WX    TMP DP  RH WIND       PRES   REMARKS
GRAND JUNCTION LGT RAIN  47  43  86 CALM      30.13R
MONTROSE       CLOUDY    44  38  79 E3        30.16R
EAGLE          CLOUDY    39  37  93 CALM      30.15R
RIFLE          LGT RAIN  43  42  97 CALM      30.14R
DELTA          CLOUDY    47  40  76 NE5       30.15R
NUCLA          CLOUDY    46  34  61 SE3       30.20R
$$

COZ017>023-064>068-241500-
...SOUTHWEST COLORADO...

CITY           SKY/WX    TMP DP  RH WIND       PRES   REMARKS
DURANGO        FAIR      35  32  88 CALM      30.20R
CORTEZ         CLOUDY    43  40  89 CALM      30.19R
PAGOSA SPRINGS FAIR      31  31  99 CALM      30.24R
TELLURIDE      CLOUDY    37  26  62 CALM      30.25R
WOLF CREEK PAS FAIR      23  21  93 MISG      30.31R
$$

COZ009-010-012-014-032>034-037-058>063-241500-
...CENTRAL COLORADO...

CITY           SKY/WX    TMP DP  RH WIND       PRES   REMARKS
ASPEN          CLOUDY    40  31  70 S8        30.12S
BUENA VISTA    CLOUDY    39  23  53 E7        30.13S
COPPER MTN     FAIR      28  19  69 MISG      30.20R
BERTHOUD PASS  CLOUDY    19   7  58 NW22G36   30.15R WCI   3
COTTONWOOD PAS FAIR      37  21  52 SW14G30   30.15R
GUNNISON       CLOUDY    34  31  88 CALM      30.22R
KREMMLING      DRIZZLE   37  30  75 SE5       30.14R
LEADVILLE      FAIR      31  19  61 E5        30.16R WCI  26
MONARCH PASS   CLOUDY    23  19  86 W35G40    30.31S WCI   4
SALIDA         CLOUDY    45  24  43 W8        30.20S
SUNLIGHT       SNOW      30  30 100 MISG      30.21R VSB 1/4
WILKERSON PASS FAIR      25  21  86 SW13G25   30.19R WCI  13
$$

COZ069>075-241500-
...SAN LUIS VALLEY/SANGRE DE CRISTO MOUNTAINS...

CITY           SKY/WX    TMP DP  RH WIND       PRES   REMARKS
ALAMOSA        FOG       30  30 100 SW3       30.20R VSB 1/4
LA VETA PASS   FAIR      30  27  86 MISG      30.19F
SAGUACHE       NOT AVBL
$$

COZ035-036-038>040-241500-
...NORTHERN COLORADO FRONT RANGE...

CITY           SKY/WX    TMP DP  RH WIND       PRES   REMARKS
DENVER INTL AP FAIR      46  28  49 SE7       30.00R
DMNS CITY PARK   N/A     48  36  64 N6        30.00S
AURORA         MOSUNNY   52  23  32 S8        30.01R
FRONT RANGE AP MOSUNNY   48  30  49 SE9       30.01R
ERIE MUNI ARPT FAIR      43  40  89 W5        30.00R
BOULDER MUN AP PTSUNNY   43  41  93 CALM      30.00R
CENTENNIAL     FAIR      50  21  32 CALM      30.01R
BROOMFIELD     MOSUNNY   41  37  87 CALM      30.01
FORT COLLINS   FAIR      43  41  93 NW6       30.01R
LONGMONT       FAIR      44  41  91 CALM      30.02R
$$

COZ041-046-047-076>085-087-088-241500-
...PIKES PEAK/PALMER DIVIDE AND SOUTHERN FOOTHILLS...

CITY           SKY/WX    TMP DP  RH WIND       PRES   REMARKS
COLO. SPRINGS  FAIR      49  23  36 CALM      30.06R
A. F. ACADEMY  PTSUNNY   49  20  31 S6        30.05R
SCHRIEVER AFB  NOT AVBL
ELLICOTT       FAIR     N/A N/A N/A E8        30.05R
FALCON         FAIR      50  19  29 S6        30.08R
FORT CARSON    FAIR      45  22  39 NE3       30.05R
LIMON          FAIR      40  34  79 CALM      30.04R
MONUMENT HILL  FAIR      46  21  36 SW8       30.08R
TRINIDAD       FAIR      44  29  55 W3        30.08R
$$

COZ042>045-048>051-090-091-241500-
...NORTHEAST COLORADO...

CITY           SKY/WX    TMP DP  RH WIND       PRES   REMARKS
GREELEY ARPT   FAIR      46  41  81 S6        30.02R
AKRON          FAIR      42  37  82 W7        30.00S
BURLINGTON     CLOUDY    51  41  68 N5        30.01S
WRAY           NOT AVBL
STERLING       FAIR      43  37  81 SW7       29.98S
HOLYOKE        FAIR      54  45  71 W6        29.98R
FORT MORGAN    FAIR      41  37  88 CALM      30.02R
$$

COZ086-089-092>099-241500-
...SOUTHEAST COLORADO...

CITY           SKY/WX    TMP DP  RH WIND       PRES   REMARKS
PUEBLO         FAIR      50  24  36 CALM      30.03R
LA JUNTA       FAIR      54  31  41 NE5       30.02R
LAMAR          FAIR      52  39  61 CALM      30.01R
SPRINGFIELD    NOT AVBL
$$




USA.gov is the U.S. government's official web portal to all federal, state and local government web resources and services.